Location: Stara Lesna
(49.1528°N, 20.2911°E)
Time: 19:11:12
(UTC+02:00)

ALOS - Pass Details

Date: 21 September 2019
Orbit: 683 x 686 km, 97.8° (Epoch: 15 October)

Event Time Altitude Azimuth Distance (km) Brightness Sun altitude
Rises 05:40:02 0° 20° (NNE) 3,062 6.1 -7.8°
Reaches altitude 10° 05:42:27 10° 29° (NNE) 2,141 5.4 -7.4°
Maximum altitude 05:46:47 36° 96° (E) 1,079 4.1 -6.8°
Drops below altitude 10° 05:51:04 10° 163° (SSE) 2,124 4.9 -6.1°
Sets 05:53:27 0° 172° (S) 3,035 5.6 -5.7°
